Akron-Canton Regional Airport

Airport
ICAO code: 
KCAK
Summary
ICAO Region: 
NAM
Territory: 
Location: 
Akron, Ohio,
Coordinates: 
Aerial View: 
40° 54' 54.032" N, 81° 26' 12.791" W
Airport WX: 
Cumulonimbus
Metar
Observation
KCAK 210451Z 04005KT 8SM -SN OVC042 M09/M14 A3047 RMK AO2 SLP340 P0000 T10891139 410331089
Station
Akron, Akron-Canton Regional Airport
Date/Time
2022-01-21 04:51:00
Wind direction
40°
Wind speed
05 kts
Lowest cloud amount
overcast
Temperature
-8.9°C
Dew point
-13.9°C
Humidity
66%
Weather condition
light snow

Description

Akron-Canton Regional Airport is a public use airport, located 16 km southeast of Akron and 16 km northwest of Canton, in the city of Green, in southern Summit County, Ohio.

Climatology

Humid continental climate (Köppen climate classification Dfa) - characterized by four seasons: cold, windy, snowy winters, mild springs, hot, humid summers, and crisp and relatively short autumns. Precipitation reaches its lowest in January and February and peaks in summer and latter half of spring.

Runways

Designator Length Width Surface Rops
14/32 1707 46 ASP Yes/Yes
5/23 2316 46 ASP Yes/Yes
1/19 2317 46 ASP Yes/Yes
Airport map: 
Aerial View: 

Accidents and Serious Incidents at or in the vicinity of KCAK

SKYbrary Partners:

Safety knowledge contributed by: